Regional Weather Roundup
Issued by NWS

Home | Current Version | Previous Version | Graphics & Text | Print | Product List | Glossary On
Versions: 1 2 3 4 5 6 7 8 9 10 11 12 13 14 15 16 17 18 19 20 21 22 23 24 25 26 27 28 29 30 31 32 33 34 35 36 37 38 39 40 41 42 43 44 45 46 47 48 49 50
000
ASUS45 KBOI 260610
RWRID

IDAHO REGIONAL WEATHER ROUNDUP
NATIONAL WEATHER SERVICE BOISE ID
1200 AM MDT WED APR 26 2017

NOTE: "FAIR" INDICATES FEW OR NO CLOUDS BELOW 12000 FEET
WITH NO SIGNIFICANT WEATHER AND/OR OBSTRUCTIONS TO VISIBILITY

IDZ012-014-260700-
SOUTHWEST IDAHO


CITY           SKY/WX    TMP DP  RH WIND       PRES   REMARKS
BOISE          CLOUDY    50  35  56 W9        29.92R
CALDWELL       LGT RAIN  51  37  58 W8        29.91S
MOUNTAIN HOME  CLOUDY    49  35  57 NW7       29.90F
$$

IDZ016-017-260700-
SOUTHCENTRAL IDAHO


CITY           SKY/WX    TMP DP  RH WIND       PRES   REMARKS
BURLEY         CLOUDY    44  31  60 SW8       29.90S
JEROME         CLOUDY    46  33  60 S3        29.91S
TWIN FALLS     CLOUDY    41  34  76 S8        29.91F
$$

IDZ019>023-260700-
SOUTHEAST IDAHO


CITY           SKY/WX    TMP DP  RH WIND       PRES   REMARKS
IDAHO FALLS    PTCLDY    42  31  64 S14       29.85F
POCATELLO      PTCLDY    43  30  60 S14       29.89F
REXBURG        CLOUDY    41  32  70 S12G20    29.84F
$$

IDZ006-010-011-018-031-032-260700-
CENTRAL IDAHO MOUNTAINS


CITY           SKY/WX    TMP DP  RH WIND       PRES   REMARKS
MCCALL         CLOUDY    40  29  64 SE6       29.84F
HAILEY         MOCLDY    43  23  45 NW10      29.89F
STANLEY          N/A     33  24  69 CALM      29.89S
SALMON         PTCLDY    41  34  75 SW3       29.83F
CHALLIS        MOCLDY    43  21  41 NW9       29.84S
$$

IDZ002-004-006-007-026-260700-
NORTHERN IDAHO


CITY           SKY/WX    TMP DP  RH WIND       PRES   REMARKS
LEWISTON       CLOUDY    49  45  86 CALM      29.81F
LOWELL           N/A     47  44  90 CALM      29.85F
COEUR D`ALENE  MOCLDY    41  39  93 E5        29.82S
MULLAN PASS    MOCLDY    31  30  96 VRB6      29.79F WCI  25
$$



USA.gov is the U.S. government's official web portal to all federal, state and local government web resources and services.